Regional Weather Roundup
Issued by NWS

Home | Current Version | Previous Version | Graphics & Text | Print | Product List | Glossary On
Versions: 1 2 3 4 5 6 7 8 9 10 11 12 13 14 15 16 17 18 19 20 21 22 23 24 25 26 27 28 29 30 31 32 33 34 35 36 37 38 39 40 41 42 43 44 45 46 47 48 49 50
000
ASUS43 KDMX 251301
RWRIA

WEATHER ROUNDUP FOR IOWA
NATIONAL WEATHER SERVICE DES MOINES IA
800 AM CDT TUE APR 25 2017

NOTE: "FAIR" INDICATES FEW OR NO CLOUDS BELOW 12,000 FEET WITH NO
SIGNIFICANT WEATHER AND/OR OBSTRUCTIONS TO VISIBILITY.

* - THESE STATIONS ARE NOT NWS STATIONS...THUS NOT UNDER NWS
QUALITY CONTROL.  THEY ALSO DO NOT REPORT WEATHER SUCH
AS PRECIPITATION OR FOG.

IAZ001>003-012>014-020>022-031>034-043>046-251400-
   NORTHWEST IOWA

CITY           SKY/WX    TMP DP  RH WIND       PRES   REMARKS
CARROLL *      CLOUDY    50  46  87 N13       29.50F
CHEROKEE *     CLOUDY    45  43  93 N7        29.55R
DENISON *      CLOUDY    46  43  87 NE5       29.53S
LE MARS *      CLOUDY    43  39  87 NW8       29.60R
ORANGE CITY *  CLOUDY    43  41  93 N15       29.55S
SHELDON *      CLOUDY    41  39  93 N12       29.57R
SIOUX CITY     CLOUDY    43  40  89 N6        29.59R
SPENCER        CLOUDY    41  39  93 N12       29.56R
STORM LAKE *   PTSUNNY   43  41  93 N10       29.54R
$$

IAZ055>058-069>071-079>083-090>094-251400-
   SOUTHWEST IOWA

CITY           SKY/WX    TMP DP  RH WIND       PRES   REMARKS
ATLANTIC *     CLOUDY    55  46  71 NE6       29.46F
AUDUBON *      CLOUDY    52  46  82 N3        29.49F
CLARINDA *     CLOUDY    57  50  77 CALM      29.48R
COUNCIL BLFS * CLOUDY    50  46  87 N10G20    29.46F
CRESTON *      CLOUDY    55  45  67 SE9       29.49F
HARLAN  *      CLOUDY    50  46  87 N12       29.50F
LAMONI         LGT RAIN  55  41  59 E8        29.49F
RED OAK *      CLOUDY    55  48  76 VRB7G16   29.45S
SHENANDOAH *   CLOUDY    57  50  77 CALM      29.48R
$$

IAZ047>049-059>061-072>074-084-251400-
   CENTRAL IOWA

CITY           SKY/WX    TMP DP  RH WIND       PRES   REMARKS
AMES           CLOUDY    53  44  71 SE6       29.52S HAZE
ANKENY *       CLOUDY    55  43  62 SE6       29.54S
BOONE *        CLOUDY    54  41  62 SE5       29.51F
CHARITON *     CLOUDY    55  41  58 S10       29.54F
DES MOINES     CLOUDY    58  42  55 SE9       29.53F
GRINNELL*      CLOUDY    55  39  53 S10       29.57S
KNOXVILLE *    CLOUDY    57  39  51 S10G16    29.53F
MARSHALLTOWN   CLOUDY    55  40  56 S10       29.54R
NEWTON *       PTSUNNY   55  39  54 S8        29.55R
PELLA *        CLOUDY    56  39  52 S8        29.56F
PERRY *          N/A     54  43  66 SE3       29.52S
$$

IAZ004>006-015-016-023>025-035-036-251400-
   NORTH CENTRAL IOWA

CITY           SKY/WX    TMP DP  RH WIND       PRES   REMARKS
ALGONA *       CLOUDY    45  45 100 N8G15     29.54R
CLARION *      CLOUDY    57  41  54 S13       29.52S
ESTHERVILLE    CLOUDY    40  40 100 N13       29.54S FOG     WCI  32
FORT DODGE *   PTSUNNY   54  41  62 S3        29.53S
MASON CITY     PTSUNNY   55  39  54 S10       29.54R
FOREST CITY *    N/A     54  39  58 SW5       29.53R
WEBSTER CITY * MOSUNNY   57  41  54 S10       29.51R
IOWA FALLS *     N/A     56  39  53 S9        29.54S
$$

IAZ007>011-017>019-026>030-037>042-050>054-066-251400-
   NORTHEAST IOWA

CITY           SKY/WX    TMP DP  RH WIND       PRES   REMARKS
CEDAR RAPIDS   PTSUNNY   57  41  55 S12       29.59R
CHARLES CITY * SUNNY     55  37  50 SE10      29.55R
CLINTON *      CLOUDY    55  42  61 SE8       29.64R
DECORAH *      SUNNY     55  37  50 SE8       29.55F
DUBUQUE        MOSUNNY   56  38  50 S16       29.61S
MONTICELLO *   MOSUNNY   57  39  51 SE8       29.60R
OELWEIN *      CLOUDY    55  39  54 SE13      29.57S
WATERLOO       MOSUNNY   57  37  47 S10       29.55R
$$

IAZ064-065-067-068-078-251400-
   EAST CENTRAL IOWA

CITY           SKY/WX    TMP DP  RH WIND       PRES   REMARKS
DAVENPORT      CLOUDY    59  41  51 S14       29.63R
IOWA CITY      PTSUNNY   55  42  61 SE3       29.62R
MUSCATINE *    MOSUNNY   57  45  62 S3        29.62R
QUAD CITIES    MOSUNNY   60  43  53 S9        29.62R
$$

IAZ062-063-075>077-085>089-095>099-251400-
   SOUTHEAST IOWA

CITY           SKY/WX    TMP DP  RH WIND       PRES   REMARKS
BURLINGTON     SUNNY     59  44  57 S13       29.62R
FAIRFIELD *    CLOUDY    59  39  47 S10       29.59S
FORT MADISON * MOSUNNY   61  45  55 S10       29.63S
KEOKUK *       MOSUNNY   61  43  51 S12G18    29.62S
OSKALOOSA *      N/A     57  40  51 S14       29.58S
OTTUMWA        CLOUDY    59  40  49 S13       29.57S
WASHINGTON *   SUNNY     59  41  51 S13       29.61S
$$

ABBREVIATIONS USED IN REMARKS
   TC - TEMPERATURES IN CELSIUS
  WCI - WIND CHILL INDEX
   HX - HEAT INDEX
  VSB - VISIBILITY
$$





USA.gov is the U.S. government's official web portal to all federal, state and local government web resources and services.